This is the latest recevied weather packets stored in our database for station/object W5DNT. If no packets are shown the sender has not sent any weather packets the latest 10 day(s).
| Time | Temp. | Humidity | Pressure | Rain* | Wind** | Luminosity | Snow |
|---|---|---|---|---|---|---|---|
| 1777150810 | 30.56° C | 61% | 1004 hPa | 0 mm | - | - | - |
| 1777149905 | 30° C | 65% | 1004.1 hPa | 0 mm | - | - | - |
| 1777149010 | 30° C | 64% | 1004.3 hPa | 0 mm | - | - | - |
| 1777148105 | 30° C | 63% | 1004.6 hPa | 0 mm | - | - | - |
| 1777147206 | 30° C | 65% | 1004.8 hPa | 0 mm | - | - | - |
| 1777146301 | 30° C | 66% | 1005 hPa | 0 mm | - | - | - |
| 1777145464 | 30° C | 66% | 1005.3 hPa | 0 mm | - | - | - |
| 1777144559 | 30° C | 66% | 1005.4 hPa | 0 mm | - | - | - |
| 1777143657 | 29.44° C | 67% | 1005.6 hPa | 0 mm | - | - | - |
| 1777142780 | 29.44° C | 69% | 1005.7 hPa | 0 mm | - | - | - |
| 1777141867 | 28.89° C | 71% | 1005.7 hPa | 0 mm | - | - | - |
| 1777140960 | 28.89° C | 69% | 1005.9 hPa | 0 mm | - | - | - |
| 1777140050 | 28.33° C | 71% | 1006 hPa | 0 mm | - | - | - |
| 1777139146 | 28.33° C | 71% | 1006 hPa | 0 mm | - | - | - |
| 1777138245 | 27.78° C | 71% | 1006.1 hPa | 0 mm | - | - | - |
| 1777137347 | 27.78° C | 73% | 1006.3 hPa | 0 mm | - | - | - |
| 1777136446 | 27.22° C | 73% | 1006.5 hPa | 0 mm | - | - | - |
| 1777135540 | 27.22° C | 75% | 1006.7 hPa | 0 mm | - | - | - |
| 1777134664 | 26.67° C | 77% | 1006.9 hPa | 0 mm | - | - | - |
| 1777133733 | 26.11° C | 79% | 1007 hPa | 0 mm | - | - | - |
| 1777132830 | 25.56° C | 81% | 1007.1 hPa | 0 mm | - | - | - |
| 1777131934 | 25° C | 83% | 1007.2 hPa | 0 mm | - | - | - |
| 1777131029 | 24.44° C | 84% | 1007.2 hPa | 0 mm | - | - | - |
| 1777130120 | 23.89° C | 85% | 1007.2 hPa | 0 mm | - | - | - |
| 1777129220 | 23.33° C | 86% | 1007.3 hPa | 0 mm | - | - | - |
* Rain latest hour (hover to see other rain measurements)
** Current wind speed in m/s (hover to see current wind gust speed)